Regional Weather Roundup
Issued by NWS

Home | Current Version | Previous Version | Text Only | Print | Product List | Glossary On
Versions: 1 2 3 4 5 6 7 8 9 10 11 12 13 14 15 16 17 18 19 20 21 22 23 24 25 26 27 28 29 30 31 32 33 34 35 36 37 38 39 40 41 42 43 44 45 46 47 48 49 50
000
ASPQ40 PGUM 250312
RWRPQ
WEATHER ROUNDUP FOR THE MARIANAS AND MICRONESIA
NATIONAL WEATHER SERVICE TIYAN GU
100 PM CHST THU MAY 25 2017

GUZ001>004-250400-
MARIANA ISLANDS-

CITY           SKY/WX    TMP DP  RH WIND       PRES   REMARKS
GUAM AIRPORT   MOSUNNY   88  75  66 E9        29.87F HX  97
ANDERSEN AFB   MOSUNNY   86  75  70 E13       29.89F HX  95
ROTA AIRPORT   MOSUNNY   86  73  66 E10       29.88F HX  93
TINIAN AP      PTSUNNY   84  75  74 E9        29.85F HX  92
SAIPAN AP      MOSUNNY   90  77  66 E12       29.87F HX 102

$$

PMZ161-250400-
REPUBLIC OF PALAU-

CITY           SKY/WX    TMP DP  RH WIND       PRES   REMARKS
KOROR AP       PTSUNNY   86  77  74 W7        29.81F HX  97
KOROR WSO      PTSUNNY   88  77  70 NW5       29.82F HX 100

$$

PMZ171>174-250400-
FEDERATED STATES OF MICRONESIA-

CITY           SKY/WX    TMP DP  RH WIND       PRES   REMARKS
YAP AIRPORT    PTSUNNY   86  81  84 VRB6      29.81F HX 102
CHUUK AP       PTSUNNY   88  84  89 VRB6      29.80F HX 112
POHNPEI AP     CLOUDY    88  77  70 NE8       29.79F HX 100
POHNPEI WSO    CLOUDY    84  77  79 NE12      29.82F HX  94
KOSRAE AP      NOT AVBL

$$

PMZ181-250400-
REPUBLIC OF THE MARSHALL ISLANDS-

CITY           SKY/WX    TMP DP  RH WIND       PRES   REMARKS
KWAJALEIN AP   PTSUNNY   88  73  62 NE12      29.82F HX  96
MAJURO AP      PTSUNNY   86  77  74 NE16      29.79S HX  97
MAJURO WSO     CLOUDY    88  77  70 NE15      29.78F HX 100

$$




USA.gov is the U.S. government's official web portal to all federal, state and local government web resources and services.